Regional Weather Roundup
Issued by NWS Green Bay, WI

Home | Current Version | Previous Version | Graphics & Text | Print | Product List | Glossary Off
Versions: 1 2 3 4 5 6 7 8 9 10 11 12 13 14 15 16 17 18 19 20 21 22 23 24 25 26 27 28 29 30 31 32 33 34 35 36 37 38 39 40 41 42 43 44 45 46 47 48 49 50

000
ASUS43 KGRB 082100
RWRGRB

NORTH-CENTRAL AND NORTHEAST WISCONSIN REGIONAL WEATHER ROUNDUP
NATIONAL WEATHER SERVICE GREEN BAY WI
300 PM CST THU DEC 08 2016

WIZ005-009-010>012-018-019-082200-
NORTH CENTRAL WISCONSIN

CITY           SKY/WX    TMP DP  RH WIND       PRES   REMARKS
IRONWOOD       FLURRIES  26  19  74 NW14G22   30.22R
MANITOWISH WTR NOT AVBL
ARBOR VITAE    NOT AVBL
EAGLE RIVER    NOT AVBL
LAND O LAKES   NOT AVBL
RHINELANDER    LGT SNOW  26  21  81 NW10      30.16R
PHILLIPS       FLURRIES  24  18  80 W9        30.21R
ANTIGO         NOT AVBL
TOMAHAWK       NOT AVBL
MERRILL        NOT AVBL
$$

WIZ013-073-082200-
NORTHEAST WISCONSIN

CITY           SKY/WX    TMP DP  RH WIND       PRES   REMARKS
IRON MOUNTAIN  MOCLDY    26  17  68 NW15      30.11R
MARINETTE      PTCLDY    32  14  47 NW12G18   30.14R
$$

WIZ017-030-035>037-045-082200-
CENTRAL WISCONSIN

CITY           SKY/WX    TMP DP  RH WIND       PRES   REMARKS
MEDFORD        NOT AVBL
WAUSAU         CLOUDY    24  16  71 W15       30.21R
MOSINEE        NOT AVBL
MARSHFIELD     CLOUDY    23  14  68 NW17      30.25R WCI   9
WISC RAPIDS    CLOUDY    25  16  68 NW16G22   30.28R
STEVENS POINT  NOT AVBL
WAUPACA        NOT AVBL
SHAWANO        NOT AVBL
CLINTONVILLE   MOCLDY    30  16  55 NW18G24   30.20R
WAUTOMA        FLURRIES  26  18  71 NW17      30.26R
$$

WIZ038-039-048-051-082200-
FOX VALLEY

CITY           SKY/WX    TMP DP  RH WIND       PRES   REMARKS
NWS GREEN BAY  CLOUDY    32  20  61 NW14      30.18R
APPLETON       MOCLDY    28  16  59 W18       30.16S
OSHKOSH        MOCLDY    26  17  68 W12G20    30.21R
FOND DU LAC    MIX PCPN  26  16  65 W15       30.23R
$$

WIZ022-050-052-082200-
EAST CENTRAL WISCONSIN

CITY           SKY/WX    TMP DP  RH WIND       PRES   REMARKS
EPHRAIM        NOT AVBL
WASHINGTON ISL NOT AVBL
STURGEON BAY   FLURRIES  31  21  66 NW15      30.14R
MANITOWOC      NOT AVBL
SHEBOYGAN      CLOUDY    27  17  66 W16G30    30.20R
$$

LMZ563-521-522-541>543-082200-
LAKESHORE

STATION/POSITION TIME  TEMP    WIND        PRES    VSBY  WAVE
                       AIR SEA DIR/SP/G                  HT/PER
                 (UTC) (F)     (DEG/KT/KT) (MB)    (MI)  (FT/S)
SHEBOYGAN LKSHOR 2000   27     280/ 22/ 25 1022.3R
KEWAUNEE LKSHORE 2030   32     290/ 13/ 18 1019.9R
NORTHPORT PIER   2040   33     320/ 20/ 26 1019.3R
CHAMBERS ISLAND  2040   34     300/ 11/ 18 1019.6R
MENOMINEE LKSHOR 2030   33     320/ 14/ 17 1019.2R
$$



USA.gov is the U.S. government's official web portal to all federal, state and local government web resources and services.